Regional Weather Roundup
Issued by NWS

Home | Current Version | Previous Version | Text Only | Print | Product List | Glossary On
Versions: 1 2 3 4 5 6 7 8 9 10 11 12 13 14 15 16 17 18 19 20 21 22 23 24 25 26 27 28
000
ASUS42 KKEY 301210
RWRKEY

FLORIDA REGIONAL WEATHER ROUNDUP FOR THE FLORIDA KEYS
NATIONAL WEATHER SERVICE KEY WEST FLORIDA
800 AM EDT THU OCT 30 2014

...SOUTH FLORIDA AND THE KEYS...

CITY           SKY/WX    TMP DP  RH WIND       PRES   REMARKS
FORT MYERS     CLEAR     67  65  93 CALM      29.96R
SW REGIONAL AP CLEAR     64  64 100 CALM      29.97R
NAPLES         CLEAR     68  66  93 NE3       29.96R
MIAMI          PTCLDY    74  67  78 CALM      29.97R
WEST KENDALL   CLEAR    N/A N/A N/A CALM      29.97R
HOMESTEAD      CLEAR     68  67  94 NW2       29.97R
MARATHON       CLEAR     72  69  90 CALM      29.96S
BOCA CHICA NAS PTCLDY    76  69  79 NE3       29.97R
KEY WEST INTL  MOCLDY    75  73  93 NE3       29.97R

...INTERNATIONAL WEATHER...

CITY           SKY/WX    TMP DP  RH WIND       PRES   REMARKS
NASSAU BAHAMAS PTCLDY    70  70 100 CALM      29.95R
CANCUN MEXICO  PTCLDY    70  70 100 CALM      29.95R
COZUMEL MEXICO PTCLDY    73  73 100 NE3       29.94R

ADJACENT COASTAL WATERS...

STATION/POSITION TIME  SKY/WX   TEMP    WIND        PRES    WAVE
                                AIR SEA DIR/SP/G            HT/PER
                 (UTC)          (F)     (DEG/KT/KT) (MB)    (FT/S)
PULASKI SHOAL LI 1100            79      30/  6/  7 1014.3R
SAND KEY         1200            77      50/  6/  7 1014.7R
SOMBRERO KEY     1200            77      30/  8/  8 1015.4R
LONG KEY         1055            77 78   30/  5/  6 1015.2R
MOLASSES REEF    1200            76 81   30/  5/  6 1014.6R
FOWEY ROCKS      1200            76 80  320/  7/  7 1014.8R
Buoy 42080       NOT AVBL

$$



USA.gov is the U.S. government's official web portal to all federal, state and local government web resources and services.